[[{"header":{"parameterUnit":"m.s-1","parameterCategory":1,"la1":30.2991,"la2":30.254,"lo1":-89.0895,"lo2":-89.0444,"dy":0.0017,"dx":0.0017,"nx":28,"ny":28,"refTime":"2026-02-15T09:00:00:Z","depth":0,"parameterNumber":2,"parameterNumberName":"U-component_of_WINDS"},"data":[0,0,0,0,0,0,0,0,0,0,0,0,0,0,0,0,0,0,0,0,0,0,0,0,0,0,0,0,0,0,0,0,0,0,0,0,0,0,0,0,0,0,0,0,0,0,0,0,0,0,0,0,0,0,0,0,0,0,-0.7511,-0.751,0,-0.7488,-0.7488,-0.7488,-0.7469,-0.7469,-0.7469,-0.7469,-0.7446,-0.7445,-0.7445,0,0,0,0,0,0,0,0,0,0,0,0,0,-0.7537,-0.7536,-0.7511,-0.751,-0.751,-0.7488,-0.7488,-0.7488,-0.7469,-0.7469,-0.7469,-0.7469,-0.7446,-0.7445,-0.7445,0,0,0,0,0,0,0,0,0,0,0,0,0,-0.7521,-0.7536,-0.7511,-0.7498,-0.7497,-0.7488,-0.7488,-0.7488,-0.7469,-0.7469,-0.7469,-0.7469,-0.7446,-0.7445,-0.7445,-0.7447,0,0,-0.7443,-0.7443,0,0,0,0,0,0,0,0,-0.7522,-0.752,-0.75,-0.7499,-0.7498,-0.7481,-0.7489,-0.7474,-0.747,-0.748,-0.7469,-0.7468,-0.7458,-0.7456,-0.7453,-0.7446,-0.7445,-0.7443,-0.7442,-0.7442,-0.7442,0,0,0,0,0,0,0,-0.7523,-0.7521,-0.7502,-0.75,-0.7498,-0.7494,-0.7491,-0.7486,-0.7471,-0.7479,-0.7478,-0.7475,-0.7457,-0.7453,-0.7452,-0.7444,-0.7443,-0.7442,-0.7442,-0.7442,-0.7437,-0.7438,0,0,0,0,0,0,-0.7526,-0.7522,-0.7503,-0.7501,-0.7509,-0.7493,-0.7491,-0.7487,-0.7471,-0.7468,-0.7475,-0.7474,-0.7455,-0.7453,-0.7451,-0.7452,-0.7442,-0.7442,-0.7441,-0.7437,-0.7437,-0.7438,0,0,0,0,0,0,-0.7527,-0.7525,-0.7503,-0.7511,-0.7508,-0.7493,-0.7489,-0.7487,-0.7483,-0.7468,-0.7465,-0.7475,-0.7454,-0.7452,-0.7448,-0.7451,-0.7441,-0.7441,-0.7437,-0.7437,-0.7438,-0.7455,0,0,0,0,0,0,-0.7528,-0.7525,-0.7526,-0.7511,-0.7508,-0.7501,-0.7489,-0.7486,-0.7482,-0.748,-0.7467,-0.7464,-0.7454,-0.7449,-0.7447,-0.745,-0.744,-0.7436,-0.7437,-0.7437,-0.7454,-0.7456,-0.7457,0,0,0,0,0,-0.7529,-0.7531,-0.7526,-0.7524,-0.7508,-0.7501,-0.7499,-0.7487,-0.7482,-0.7483,-0.7473,-0.7464,-0.7451,-0.7449,-0.7447,-0.7449,-0.7436,-0.7437,-0.7437,-0.7453,-0.7456,-0.7457,0,0,0,0,0,0,-0.7547,-0.7529,-0.7523,-0.7521,-0.7513,-0.7498,-0.7498,-0.749,-0.7483,-0.7482,-0.7468,-0.7465,-0.7462,-0.7455,-0.7453,-0.745,-0.7442,-0.7443,-0.7455,-0.7457,-0.7459,-0.7461,-0.744,0,0,0,0,0,-0.755,-0.7546,-0.7531,-0.7531,-0.7527,-0.7513,-0.751,-0.7501,-0.7492,-0.7488,-0.7479,-0.747,-0.7464,-0.746,-0.7453,-0.7453,-0.7449,-0.7453,-0.7455,-0.7457,-0.7457,-0.7457,-0.7458,-0.744,-0.744,-0.744,0,0,-0.7558,-0.7548,-0.7546,-0.7534,-0.7527,-0.7522,-0.7511,-0.7507,-0.7503,-0.7488,-0.7484,-0.7476,-0.7465,-0.7463,-0.7461,-0.7457,-0.7462,-0.7457,-0.7459,-0.7459,-0.7457,-0.7459,-0.7461,-0.744,-0.744,-0.744,0,0,-0.757,-0.7562,-0.7561,-0.7554,-0.7543,-0.7533,-0.7533,-0.7519,-0.7514,-0.7509,-0.7498,-0.7493,-0.7483,-0.7476,-0.7471,-0.7479,-0.7471,-0.7477,-0.7487,-0.7486,-0.7488,-0.7489,-0.7493,-0.7494,-0.7478,-0.7478,-0.7478,0,-0.7581,-0.7575,-0.7562,-0.7558,-0.7554,-0.7539,-0.7538,-0.7531,-0.7519,-0.7516,-0.7511,-0.7497,-0.7489,-0.7485,-0.7487,-0.7483,-0.7482,-0.7479,-0.7489,-0.749,-0.7491,-0.7494,-0.7495,-0.7479,-0.7479,-0.7479,-0.7479,0,-0.7589,-0.7585,-0.7585,-0.7573,-0.7568,-0.7566,-0.7553,-0.7549,-0.7541,-0.7532,-0.7527,-0.7517,-0.7508,-0.7506,-0.7498,-0.7501,-0.7498,-0.7491,-0.7483,-0.7494,-0.7496,-0.7497,-0.748,-0.748,-0.748,-0.7479,0,0,-0.7613,-0.7593,-0.7594,-0.7588,-0.7575,-0.7571,-0.7567,-0.7559,-0.7556,-0.7547,-0.7545,-0.7536,-0.7529,-0.7523,-0.7514,-0.7514,-0.7522,-0.7506,-0.7506,-0.751,-0.7524,-0.753,-0.7532,-0.7516,-0.7516,-0.7516,-0.7525,0,-0.7623,-0.7618,-0.7606,-0.7603,-0.7599,-0.7585,-0.7582,-0.7573,-0.7565,-0.756,-0.755,-0.7544,-0.7536,-0.7532,-0.7531,-0.7521,-0.7524,-0.752,-0.7513,-0.7513,-0.7517,-0.7533,-0.754,-0.7549,-0.7526,-0.7526,-0.7526,0,-0.7635,-0.7628,-0.7625,-0.7611,-0.7609,-0.7607,-0.7598,-0.7593,-0.7582,-0.7576,-0.757,-0.756,-0.7555,-0.7547,-0.7541,-0.7539,-0.7535,-0.753,-0.753,-0.7529,-0.7521,-0.7534,-0.7552,-0.7553,-0.7528,-0.7528,-0.7528,0,-0.7654,-0.7642,-0.764,-0.7635,-0.7619,-0.7618,-0.7611,-0.76,-0.7595,-0.7587,-0.7584,-0.7575,-0.7571,-0.7564,-0.7552,-0.7547,-0.7548,-0.7539,-0.7543,-0.7543,-0.7544,-0.7545,-0.7563,-0.7541,-0.7541,-0.7541,-0.7541,0,-0.7667,-0.7666,-0.7648,-0.7646,-0.7645,-0.763,-0.7629,-0.7621,-0.7611,-0.7608,-0.7594,-0.7591,-0.7575,-0.757,-0.756,-0.7557,-0.7555,-0.755,-0.7547,-0.7551,-0.7552,-0.7549,-0.7549,-0.7541,-0.7541,-0.7541,-0.7541,0,-0.7688,-0.7676,-0.7672,-0.7656,-0.7652,-0.7652,-0.7639,-0.7636,-0.7627,-0.7622,-0.762,-0.7605,-0.7599,-0.7585,-0.7575,-0.7568,-0.7568,-0.7563,-0.7571,-0.757,-0.7575,-0.7575,-0.7593,-0.7594,-0.7571,-0.7571,-0.7571,0,-0.7698,-0.7697,-0.7682,-0.7678,-0.7672,-0.7667,-0.7662,-0.7647,-0.7643,-0.7631,-0.763,-0.7622,-0.7615,-0.7605,-0.7593,-0.7584,-0.758,-0.7587,-0.7579,-0.7583,-0.7581,-0.7581,-0.7581,-0.7589,-0.7589,-0.7589,-0.759,0,-0.7718,-0.7711,-0.7705,-0.7696,-0.7691,-0.7683,-0.7675,-0.7673,-0.7657,-0.7652,-0.7645,-0.764,-0.7629,-0.7621,-0.7611,-0.7604,-0.7594,-0.7592,-0.7593,-0.7597,-0.7603,-0.76,-0.7577,-0.7592,-0.7592,-0.7591,-0.7591,-0.7591,-0.7734,-0.7732,-0.7721,-0.7715,-0.7707,-0.7699,-0.7696,-0.7686,-0.768,-0.767,-0.7662,-0.7655,-0.7644,-0.763,-0.7623,-0.7617,-0.7613,-0.7614,-0.7614,-0.7615,-0.7617,-0.7603,-0.7615,-0.7615,-0.7615,-0.7615,-0.7615,0,-0.7753,-0.7745,-0.7739,-0.7728,-0.7723,-0.7713,-0.7704,-0.77,-0.7694,-0.7685,-0.7678,-0.767,-0.7662,-0.7649,-0.764,-0.7639,-0.7634,-0.7637,-0.7637,-0.7636,-0.7621,-0.7622,-0.7641,-0.7641,-0.7641,-0.7641,-0.7641,-0.7641,-0.7763,-0.776,-0.7752,-0.7745,-0.7737,-0.773,-0.7726,-0.7719,-0.7711,-0.7702,-0.7696,-0.7687,-0.7676,-0.7667,-0.7659,-0.7655,-0.7653,-0.7658,-0.7653,-0.7639,-0.7637,-0.7635,-0.7635,-0.7657,-0.7657,-0.7668,-0.7668,-0.7668]},{"header":{"parameterUnit":"m.s-1","parameterCategory":1,"la1":30.2991,"la2":30.254,"lo1":-89.0895,"lo2":-89.0444,"dy":0.0017,"dx":0.0017,"nx":28,"ny":28,"refTime":"2026-02-15T09:00:00:Z","depth":0,"parameterNumber":3,"parameterNumberName":"V-component_of_WINDS"},"data":[0,0,0,0,0,0,0,0,0,0,0,0,0,0,0,0,0,0,0,0,0,0,0,0,0,0,0,0,0,0,0,0,0,0,0,0,0,0,0,0,0,0,0,0,0,0,0,0,0,0,0,0,0,0,0,0,0,0,-1.1346,-1.1347,0,-1.1466,-1.1468,-1.1469,-1.1547,-1.1547,-1.1548,-1.1548,-1.1671,-1.1674,-1.1677,0,0,0,0,0,0,0,0,0,0,0,0,0,-1.1187,-1.1189,-1.1346,-1.1347,-1.1349,-1.1466,-1.1468,-1.1469,-1.1547,-1.1547,-1.1548,-1.1548,-1.1671,-1.1674,-1.1677,0,0,0,0,0,0,0,0,0,0,0,0,0,-1.1276,-1.119,-1.1346,-1.1402,-1.1408,-1.1466,-1.1468,-1.147,-1.1546,-1.1547,-1.1548,-1.1549,-1.1669,-1.1674,-1.1678,-1.1689,0,0,-1.1691,-1.1693,0,0,0,0,0,0,0,0,-1.1271,-1.1282,-1.1392,-1.1398,-1.1405,-1.1492,-1.1457,-1.1543,-1.1546,-1.1494,-1.1548,-1.1549,-1.1611,-1.162,-1.1641,-1.1695,-1.1701,-1.1691,-1.1694,-1.1695,-1.1697,0,0,0,0,0,0,0,-1.1265,-1.1277,-1.1394,-1.1393,-1.1401,-1.1422,-1.1435,-1.1474,-1.1547,-1.1498,-1.1504,-1.1518,-1.1615,-1.1637,-1.1645,-1.1702,-1.1691,-1.1695,-1.1697,-1.1699,-1.1777,-1.1777,0,0,0,0,0,0,-1.125,-1.1272,-1.139,-1.1397,-1.1338,-1.1424,-1.1439,-1.1463,-1.1547,-1.156,-1.1517,-1.1521,-1.1629,-1.164,-1.1649,-1.1672,-1.1695,-1.1699,-1.1702,-1.1778,-1.1777,-1.1777,0,0,0,0,0,0,-1.1246,-1.1259,-1.1385,-1.1336,-1.1354,-1.1426,-1.1453,-1.1465,-1.1488,-1.1561,-1.1574,-1.1526,-1.163,-1.1643,-1.168,-1.1677,-1.1701,-1.1705,-1.1778,-1.1778,-1.1777,-1.1715,0,0,0,0,0,0,-1.1241,-1.1257,-1.1261,-1.1336,-1.1356,-1.1412,-1.1452,-1.1467,-1.1495,-1.1501,-1.1573,-1.1585,-1.1632,-1.1673,-1.1684,-1.1684,-1.1709,-1.1779,-1.1778,-1.1777,-1.1718,-1.1712,-1.1708,0,0,0,0,0,-1.1235,-1.1238,-1.1261,-1.1275,-1.1362,-1.1412,-1.1424,-1.1477,-1.1494,-1.15,-1.1548,-1.1583,-1.1676,-1.1676,-1.1689,-1.169,-1.1779,-1.1778,-1.1777,-1.172,-1.1713,-1.1708,0,0,0,0,0,0,-1.1161,-1.1249,-1.1275,-1.1303,-1.1349,-1.1425,-1.1433,-1.1468,-1.1511,-1.1515,-1.158,-1.1595,-1.1626,-1.1662,-1.1661,-1.1708,-1.1732,-1.1733,-1.1684,-1.1678,-1.1673,-1.1665,-1.1712,0,0,0,0,0,-1.1148,-1.118,-1.1255,-1.1272,-1.1294,-1.136,-1.1383,-1.1421,-1.1472,-1.1492,-1.1542,-1.1591,-1.1632,-1.1657,-1.1698,-1.1723,-1.1742,-1.173,-1.1725,-1.1721,-1.1722,-1.1742,-1.1739,-1.1773,-1.1773,-1.1773,0,0,-1.1121,-1.1173,-1.1189,-1.1259,-1.1299,-1.1333,-1.1376,-1.1408,-1.1434,-1.1497,-1.1536,-1.1574,-1.1633,-1.1665,-1.1682,-1.1696,-1.1716,-1.1719,-1.1715,-1.1719,-1.174,-1.1737,-1.1734,-1.1773,-1.1773,-1.1773,0,0,-1.109,-1.1131,-1.1152,-1.1192,-1.1254,-1.1298,-1.1303,-1.1374,-1.1403,-1.1443,-1.1492,-1.1524,-1.1591,-1.1633,-1.1662,-1.1651,-1.1687,-1.1663,-1.1637,-1.1656,-1.1653,-1.1651,-1.165,-1.1649,-1.1663,-1.1663,-1.1663,0,-1.1048,-1.11,-1.1158,-1.1189,-1.1219,-1.1279,-1.1302,-1.1338,-1.141,-1.1431,-1.1445,-1.1534,-1.1578,-1.1622,-1.162,-1.1641,-1.1651,-1.1655,-1.1649,-1.1647,-1.1646,-1.1646,-1.1645,-1.166,-1.166,-1.1661,-1.1661,0,-1.1048,-1.1083,-1.1093,-1.1162,-1.1194,-1.122,-1.1284,-1.1309,-1.1345,-1.1388,-1.143,-1.1485,-1.154,-1.1554,-1.1588,-1.1604,-1.1612,-1.1636,-1.1662,-1.1639,-1.164,-1.164,-1.1656,-1.1657,-1.1658,-1.1658,0,0,-1.0971,-1.1075,-1.1078,-1.1112,-1.1186,-1.1215,-1.1246,-1.1301,-1.1323,-1.1371,-1.14,-1.1458,-1.1483,-1.1517,-1.1557,-1.1573,-1.1565,-1.1597,-1.1599,-1.1591,-1.159,-1.1572,-1.1571,-1.1589,-1.1589,-1.1589,-1.1586,0,-1.0953,-1.1011,-1.1066,-1.1105,-1.114,-1.1199,-1.1227,-1.1276,-1.1318,-1.1355,-1.1402,-1.1443,-1.1471,-1.1493,-1.1512,-1.1562,-1.1566,-1.1562,-1.1618,-1.162,-1.1603,-1.1571,-1.1551,-1.1545,-1.1586,-1.1587,-1.1587,0,-1.0939,-1.0986,-1.1029,-1.1104,-1.1121,-1.1144,-1.1201,-1.1235,-1.1294,-1.1323,-1.1363,-1.1406,-1.1444,-1.1465,-1.1519,-1.1516,-1.1542,-1.1571,-1.1572,-1.158,-1.1602,-1.158,-1.1544,-1.1544,-1.1587,-1.1587,-1.1587,0,-1.0882,-1.0957,-1.0993,-1.102,-1.1107,-1.1123,-1.116,-1.1219,-1.125,-1.13,-1.1321,-1.1374,-1.1404,-1.1445,-1.1502,-1.1512,-1.1552,-1.1577,-1.1579,-1.1578,-1.1585,-1.1584,-1.1555,-1.1599,-1.1599,-1.1599,-1.1599,0,-1.0857,-1.0881,-1.097,-1.0992,-1.1023,-1.1086,-1.1115,-1.1157,-1.121,-1.1243,-1.1297,-1.1327,-1.14,-1.144,-1.1485,-1.1525,-1.1537,-1.1564,-1.1576,-1.156,-1.1557,-1.1579,-1.1582,-1.1599,-1.1599,-1.1599,-1.1599,0,-1.0799,-1.0859,-1.0903,-1.0983,-1.1004,-1.1023,-1.1092,-1.1117,-1.1163,-1.1205,-1.1218,-1.1291,-1.1341,-1.1402,-1.147,-1.1501,-1.1538,-1.1555,-1.1518,-1.1525,-1.1525,-1.1525,-1.151,-1.1513,-1.1553,-1.1552,-1.1552,0,-1.0779,-1.08,-1.0883,-1.091,-1.0946,-1.0987,-1.102,-1.1084,-1.1116,-1.1186,-1.1204,-1.1258,-1.1304,-1.1381,-1.1441,-1.1495,-1.1515,-1.1506,-1.1523,-1.1508,-1.1518,-1.1517,-1.152,-1.1502,-1.1501,-1.1501,-1.15,0,-1.074,-1.0769,-1.0814,-1.087,-1.0908,-1.0954,-1.1004,-1.1022,-1.1098,-1.1131,-1.1183,-1.1219,-1.1291,-1.1345,-1.1408,-1.1448,-1.1487,-1.1494,-1.1498,-1.1483,-1.1462,-1.1476,-1.1508,-1.1494,-1.1495,-1.1495,-1.1496,-1.1496,-1.0703,-1.0725,-1.0788,-1.0837,-1.0882,-1.0927,-1.0956,-1.1007,-1.1051,-1.1115,-1.1151,-1.1203,-1.1265,-1.1353,-1.1391,-1.1434,-1.1448,-1.1453,-1.1454,-1.1455,-1.1452,-1.1454,-1.1445,-1.1445,-1.1446,-1.1446,-1.1446,0,-1.0668,-1.0712,-1.0757,-1.0825,-1.0865,-1.0899,-1.0956,-1.0987,-1.1032,-1.1086,-1.1132,-1.1194,-1.1247,-1.1312,-1.137,-1.1392,-1.1412,-1.1406,-1.1405,-1.1415,-1.1434,-1.1426,-1.1389,-1.1389,-1.1389,-1.1389,-1.1389,-1.1389,-1.0655,-1.0696,-1.0733,-1.0798,-1.0843,-1.0895,-1.0925,-1.0968,-1.1013,-1.1079,-1.1124,-1.1166,-1.1226,-1.129,-1.1341,-1.1359,-1.1379,-1.1367,-1.1391,-1.1408,-1.1413,-1.1418,-1.141,-1.1371,-1.1371,-1.1368,-1.1368,-1.1368]}]]